TimeMST,TemperatureF,Dew PointF,Humidity,Sea Level PressureIn,VisibilityMPH,Wind Direction,Wind SpeedMPH,Gust SpeedMPH,PrecipitationIn,Events,Conditions,WindDirDegrees,DateUTC
12:03 AM,30.2,26.6,86,29.93,10.0,ESE,6.9,-,N/A,,Mostly Cloudy,110,2012-12-07 07:03:00
12:53 AM,30.0,28.0,92,30.01,10.0,ESE,3.5,-,N/A,,Overcast,120,2012-12-07 07:53:00
1:53 AM,30.9,28.0,89,30.01,10.0,Calm,Calm,-,N/A,,Overcast,0,2012-12-07 08:53:00
2:11 AM,30.2,28.4,93,29.93,10.0,SE,3.5,-,N/A,,Overcast,130,2012-12-07 09:11:00
2:53 AM,30.9,28.0,89,30.02,10.0,Calm,Calm,-,N/A,,Overcast,0,2012-12-07 09:53:00
3:53 AM,28.0,26.1,92,30.03,4.0,Calm,Calm,-,N/A,,Mostly Cloudy,0,2012-12-07 10:53:00
4:35 AM,28.4,26.6,93,29.93,2.5,Calm,Calm,-,0.00,Snow,Light Snow,0,2012-12-07 11:35:00
4:39 AM,28.4,26.6,93,29.93,1.2,NNW,3.5,-,0.00,Snow,Light Snow,330,2012-12-07 11:39:00
4:49 AM,28.4,26.6,93,29.94,2.0,Calm,Calm,-,0.01,Snow,Light Snow,0,2012-12-07 11:49:00
4:53 AM,28.9,27.0,92,30.03,5.0,Variable,3.5,-,0.01,Snow,Light Snow,0,2012-12-07 11:53:00
5:53 AM,28.0,26.1,92,30.04,10.0,Calm,Calm,-,0.00,,Overcast,0,2012-12-07 12:53:00
6:53 AM,30.9,27.0,85,30.05,10.0,East,3.5,-,N/A,,Overcast,100,2012-12-07 13:53:00
7:53 AM,30.0,27.0,88,30.06,10.0,SE,5.8,-,N/A,,Mostly Cloudy,140,2012-12-07 14:53:00
8:53 AM,28.9,26.1,89,30.05,10.0,Calm,Calm,-,N/A,,Overcast,0,2012-12-07 15:53:00
9:53 AM,32.0,27.0,82,30.04,10.0,ESE,4.6,-,N/A,,Overcast,110,2012-12-07 16:53:00
10:53 AM,32.0,28.0,85,30.04,10.0,SSE,6.9,-,N/A,,Overcast,150,2012-12-07 17:53:00
11:53 AM,35.1,26.1,70,29.98,10.0,SE,6.9,-,N/A,,Mostly Cloudy,130,2012-12-07 18:53:00
12:53 PM,36.0,24.1,62,29.94,10.0,SSE,9.2,-,N/A,,Overcast,160,2012-12-07 19:53:00
1:53 PM,36.0,25.0,64,29.89,10.0,South,10.4,-,N/A,,Mostly Cloudy,170,2012-12-07 20:53:00
2:53 PM,37.0,26.1,65,29.86,10.0,SSE,11.5,-,N/A,,Overcast,160,2012-12-07 21:53:00
3:53 PM,36.0,28.0,73,29.84,8.0,SSW,5.8,-,N/A,,Overcast,210,2012-12-07 22:53:00
4:04 PM,35.6,28.4,75,29.76,3.0,SSE,15.0,-,0.00,Snow,Light Snow,160,2012-12-07 23:04:00
4:11 PM,35.6,28.4,75,29.76,2.5,SSE,13.8,-,0.00,Snow,Light Snow,160,2012-12-07 23:11:00
4:24 PM,33.8,30.2,87,29.76,1.0,SSE,18.4,-,0.00,Snow,Light Snow,160,2012-12-07 23:24:00
4:51 PM,33.8,30.2,87,29.74,3.0,SSE,15.0,-,0.00,Snow,Light Snow,150,2012-12-07 23:51:00
4:53 PM,33.1,30.0,89,29.82,5.0,SE,13.8,-,0.00,Snow,Light Snow,140,2012-12-07 23:53:00
5:38 PM,33.8,30.2,87,29.72,2.5,South,15.0,-,0.00,Snow,Light Snow,170,2012-12-08 00:38:00
5:41 PM,33.8,30.2,87,29.73,1.2,South,13.8,-,0.00,Snow,Light Snow,170,2012-12-08 00:41:00
5:43 PM,33.8,30.2,87,29.73,1.0,South,11.5,-,0.00,Snow,Light Snow,180,2012-12-08 00:43:00
5:51 PM,33.8,30.2,87,29.73,0.5,SW,20.7,-,0.01,Fog-Snow,Snow,230,2012-12-08 00:51:00
5:52 PM,33.1,30.9,92,29.81,0.5,SW,19.6,23.0,0.01,Fog-Snow,Snow,230,2012-12-08 00:52:00
5:54 PM,32.0,30.2,93,29.73,0.5,SW,17.3,-,0.01,Fog-Snow,Snow,230,2012-12-08 00:54:00
6:03 PM,32.0,32.0,100,29.72,0.5,SW,17.3,28.8,0.03,Fog-Snow,Snow,220,2012-12-08 01:03:00
6:19 PM,33.8,30.2,87,29.72,1.2,West,18.4,28.8,0.05,Snow,Light Snow,260,2012-12-08 01:19:00
6:24 PM,33.8,30.2,87,29.72,2.0,West,13.8,28.8,0.06,Snow,Light Snow,260,2012-12-08 01:24:00
6:28 PM,33.8,30.2,87,29.72,3.0,West,6.9,23.0,0.06,Snow,Light Snow,260,2012-12-08 01:28:00
6:43 PM,33.8,30.2,87,29.71,8.0,Calm,Calm,-,0.06,Snow,Light Snow,0,2012-12-08 01:43:00
6:53 PM,33.1,28.9,85,29.79,10.0,SSE,6.9,-,0.06,,Overcast,150,2012-12-08 01:53:00
7:03 PM,32.0,30.2,93,29.72,5.0,South,4.6,-,0.00,Snow,Light Snow,170,2012-12-08 02:03:00
7:06 PM,32.0,30.2,93,29.72,2.5,West,3.5,-,0.00,Snow,Light Snow,270,2012-12-08 02:06:00
7:09 PM,32.0,30.2,93,29.72,1.2,Calm,Calm,-,0.00,Snow,Light Snow,0,2012-12-08 02:09:00
7:12 PM,32.0,30.2,93,29.71,0.8,Calm,Calm,-,0.00,Snow,Light Snow,0,2012-12-08 02:12:00
7:22 PM,32.0,30.2,93,29.71,0.2,NW,12.7,19.6,0.03,Fog-Snow,Heavy Snow,310,2012-12-08 02:22:00
7:36 PM,32.0,30.2,93,29.71,0.2,NW,18.4,25.3,N/A,Fog-Snow,Heavy Snow,310,2012-12-08 02:36:00
7:53 PM,30.9,30.0,96,29.78,0.2,WNW,27.6,32.2,0.09,Fog-Snow,Heavy Snow,290,2012-12-08 02:53:00
8:06 PM,32.0,30.2,93,29.70,0.8,West,20.7,34.5,0.04,Snow,Light Snow,280,2012-12-08 03:06:00
8:08 PM,32.0,30.2,93,29.70,1.0,West,18.4,34.5,0.04,Snow,Light Snow,280,2012-12-08 03:08:00
8:10 PM,32.0,30.2,93,29.70,1.5,WNW,18.4,32.2,0.04,Snow,Light Snow,290,2012-12-08 03:10:00
8:14 PM,32.0,30.2,93,29.69,2.0,NW,8.1,26.5,N/A,Snow,Light Snow,320,2012-12-08 03:14:00
8:23 PM,30.2,30.2,100,29.69,4.0,Variable,3.5,-,0.04,Snow,Light Snow,0,2012-12-08 03:23:00
8:53 PM,32.0,30.0,92,29.77,2.0,Calm,Calm,-,0.04,Snow,Light Snow,0,2012-12-08 03:53:00
9:06 PM,32.0,30.2,93,29.69,3.0,Calm,Calm,-,0.01,Snow,Light Snow,0,2012-12-08 04:06:00
9:53 PM,28.9,28.0,96,29.77,10.0,ESE,4.6,-,0.01,,Mostly Cloudy,110,2012-12-08 04:53:00
10:11 PM,30.2,28.4,93,29.69,2.5,Variable,6.9,-,0.00,Snow,Light Snow,0,2012-12-08 05:11:00
10:15 PM,32.0,28.4,87,29.69,1.5,WNW,10.4,18.4,0.00,Snow,Light Snow,300,2012-12-08 05:15:00
10:22 PM,32.0,28.4,87,29.70,1.2,NW,10.4,18.4,0.00,Snow,Light Snow,310,2012-12-08 05:22:00
10:29 PM,32.0,26.6,80,29.70,1.5,NW,19.6,29.9,0.00,Snow,Light Snow,320,2012-12-08 05:29:00
10:32 PM,30.2,26.6,86,29.70,1.0,NW,28.8,35.7,0.00,Snow,Light Snow,310,2012-12-08 05:32:00
10:36 PM,30.2,26.6,86,29.70,0.5,NW,31.1,40.3,0.00,Fog-Snow,Snow,320,2012-12-08 05:36:00
10:53 PM,28.9,28.0,96,29.79,0.5,NW,27.6,32.2,0.01,Fog-Snow,Snow,310,2012-12-08 05:53:00
11:01 PM,28.4,26.6,93,29.71,0.2,WNW,31.1,43.7,0.00,Fog-Snow,Heavy Snow,300,2012-12-08 06:01:00
11:13 PM,30.2,28.4,93,29.71,0.2,WNW,19.6,26.5,0.01,Fog-Snow,Heavy Snow,290,2012-12-08 06:13:00
11:16 PM,30.2,28.4,93,29.72,0.5,WNW,21.9,26.5,0.01,Fog-Snow,Snow,300,2012-12-08 06:16:00
11:27 PM,28.4,26.6,93,29.72,0.8,WNW,19.6,36.8,0.02,Snow,Light Snow,300,2012-12-08 06:27:00
11:31 PM,30.2,26.6,86,29.72,1.5,WNW,18.4,33.4,0.02,Snow,Light Snow,300,2012-12-08 06:31:00
11:34 PM,30.2,26.6,86,29.72,3.0,WNW,17.3,-,0.02,Snow,Light Snow,300,2012-12-08 06:34:00
11:46 PM,30.2,26.6,86,29.72,7.0,NW,18.4,-,0.02,Snow,Light Snow,310,2012-12-08 06:46:00
11:53 PM,30.0,26.1,85,29.80,1.2,WNW,24.2,-,0.02,Snow,Light Snow,300,2012-12-08 06:53:00
11:56 PM,30.2,26.6,86,29.73,0.8,WNW,21.9,-,0.00,Snow,Light Snow,300,2012-12-08 06:56:00